Regional Weather Roundup
Issued by NWS

Home | Current Version | Previous Version | Graphics & Text | Print | Product List | Glossary On
Versions: 1 2 3 4 5 6 7 8 9 10 11 12 13 14 15 16 17 18 19 20 21 22 23 24 25 26 27 28 29 30 31 32 33 34 35 36 37 38 39 40 41 42 43 44 45 46 47 48 49 50
049
ASUS43 KFSD 171110
RWRSD

WEATHER ROUNDUP FOR SOUTH DAKOTA
NATIONAL WEATHER SERVICE SIOUX FALLS SD
500 AM CST TUE JAN 17 2017

NOTE: "FAIR" INDICATES FEW OR NO CLOUDS BELOW 12,000 FEET WITH NO
SIGNIFICANT WEATHER AND/OR OBSTRUCTIONS TO VISIBILITY.


SDZ001>005-009-010-012>017-171200-
NORTHWEST AND NORTH CENTRAL SOUTH DAKOTA

CITY           SKY/WX    TMP DP  RH WIND       PRES   REMARKS
BUFFALO          N/A     18   8  65 SW7       29.87F WCI   9
FAITH            N/A     15  10  80 SW8       29.97F WCI   4
MOBRIDGE       CLOUDY     6   1  80 CALM      29.98F
$$

SDZ012>016-024>037-041>051-057-063-072>074-171200-
SOUTHWEST AND SOUTH CENTRAL SOUTH DAKOTA

CITY           SKY/WX    TMP DP  RH WIND       PRES   REMARKS
RAPID CTY ARPT CLOUDY    15   9  76 CALM      29.98F
PIERRE         CLOUDY    12   8  84 W8        30.03R WCI   0
CUSTER         CLOUDY    24   3  40 W5        29.93F WCI  18
ELLSWORTH AFB  CLOUDY    16   9  73 W5        29.97F WCI   9
PHILIP         CLOUDY    11   6  81 W8        30.03F WCI  -1
PINE RIDGE     CLOUDY     2  -1  88 CALM      30.02F
SPEARFISH      FAIR      18   7  62 SW3       29.95F
WINNER         FAIR      17  12  80 W8        30.04F WCI   7
$$

SDZ004>011-016>023-039-040-171200-
NORTHEAST SOUTH DAKOTA

CITY           SKY/WX    TMP DP  RH WIND       PRES   REMARKS
ABERDEEN       CLOUDY     0  -4  83 CALM      30.01F
WATERTOWN      CLOUDY     1  -4  79 CALM      29.96F
BROOKINGS      CLOUDY     6   3  87 N3        29.98F
SISSETON         N/A      0  -3  87 CALM      29.99F
$$

SDZ017-020-022-023-036>040-048>070-171200-
SOUTHEAST SOUTH DAKOTA

CITY           SKY/WX    TMP DP  RH WIND       PRES   REMARKS
SIOUX FALLS    CLOUDY    14  11  87 W6        30.01R FOG     WCI   5
HURON          CLOUDY     3   1  91 W3        30.03F
CHAMBERLAIN    CLOUDY    13  10  91 W7        30.04F WCI   2
MITCHELL       CLOUDY    10   7  87 W5        30.05F WCI   2
YANKTON        CLOUDY    16   9  73 CALM      30.06R
$$

ABBREVIATIONS USED IN REMARKS
   TC - TEMPERATURE IN CELSIUS
  WCI - WIND CHILL INDEX
   HX - HEAT INDEX
  VSB - VISIBILITY





USA.gov is the U.S. government's official web portal to all federal, state and local government web resources and services.